Location: Passau
(48.5830°N, 13.4830°E)
Time: 21:30:23
(UTC+02:00)

Vanguard 3 - Pass Details

Date: 19 May 2024
Orbit: 509 x 3231 km, 33.3° (Epoch: 16 June)

Event Time Altitude Azimuth Distance (km) Brightness Sun altitude
Rises 00:15:33 0° 262° (W) 5,726 11.5 -20.8°
Reaches altitude 10° 00:19:06 10° 256° (WSW) 5,039 11.1 -20.9°
Maximum altitude 00:33:31 44° 192° (SSW) 3,828 10.0 -21.3°
Drops below altitude 10° 00:51:14 10° 129° (SE) 6,095 11.2 -21.5°
Sets 00:56:06 0° 124° (SE) 6,978 11.6 -21.6°
